This demonstration page uses our WeatherBlox Daily Observations layout. Learn more.

Left ArrowRight Arrow

Hourly Observations for October 1, 2021

Temp ( °F °C ) Dew Point ( °F °C ) Humidity (%) Winds ( mph kmh ) Pressure ( in mb ) Visibility ( mi km ) Precip ( " mm )
12:00 am 00:00 Cloudy with Mist and Fog 58 14.4 57 13.9 97 97 NW 5 7 30.09 1019 4 6 0.00 0.00
12:53 am 00:53 Cloudy with Mist and Fog 58 14.4 57 13.9 97 97 NW 5 7 30.10 1019 5 8 0.00 0.00
1:28 am 01:28 Cloudy with Mist and Fog 58 14.4 57 13.9 97 97 NW 8 13 30.08 1018 4 6 0.00 0.00
1:53 am 01:53 Cloudy with Mist and Fog 58 14.4 57 13.9 97 97 NW 7 11 30.08 1019 6 10 0.00 0.00
2:53 am 02:53 Cloudy 58 14.4 57 13.9 97 97 NW 6 9 30.07 1018 8 13 0.00 0.00
3:53 am 03:53 Cloudy with Mist and Fog 58 14.4 57 13.9 97 97 WNW 7 11 30.06 1018 5 8 0.00 0.00
4:53 am 04:53 Cloudy with Mist and Fog 57 13.9 57 13.9 100 100 NW 8 13 30.07 1018 3 5 0.00 0.00
5:16 am 05:16 Cloudy with Mist and Fog 57 13.9 57 13.9 100 100 NW 8 13 30.06 1018 3 4 0.00 0.00
5:27 am 05:27 Cloudy with Mist and Fog 57 13.9 57 13.9 100 100 WNW 8 13 30.07 1018 3 5 0.00 0.00
5:53 am 05:53 Cloudy with Mist and Fog 57 13.9 57 13.9 100 100 NW 7 11 30.08 1019 3 5 0.00 0.00
6:53 am 06:53 Cloudy with Mist and Fog 58 14.4 57 13.9 97 97 NW 6 9 30.08 1019 5 8 0.00 0.00
7:53 am 07:53 Cloudy 58 14.4 57 13.9 97 97 NW 6 9 30.08 1019 7 11 0.00 0.00
8:53 am 08:53 Cloudy 59 15 57 13.9 93 93 WNW 6 9 30.10 1019 9 14 0.00 0.00
9:12 am 09:12 Cloudy 59 15 57 13.9 93 93 NW 7 11 30.08 1019 8 13 0.00 0.00
9:23 am 09:23 Cloudy 59 15 57 13.9 93 93 NW 8 13 30.08 1019 8 13 0.00 0.00
9:53 am 09:53 Cloudy 59 15 58 14.4 96 96 NW 8 13 30.09 1019 8 13 0.00 0.00
10:18 am 10:18 Cloudy 60 15.6 58 14.4 93 93 NW 3 6 30.08 1019 9 14 0.00 0.00
10:53 am 10:53 Cloudy 61 16.1 58 14.4 90 90 WNW 5 7 30.09 1019 7 11 0.00 0.00
11:18 am 11:18 Cloudy 61 16.1 58 14.4 90 90 WNW 6 9 30.07 1018 10 16 0.00 0.00
11:53 am 11:53 Cloudy 62 16.7 57 13.9 84 84 WNW 6 9 30.09 1019 10 16 0.00 0.00
12:53 pm 12:53 Cloudy 63 17.2 58 14.4 84 84 WNW 7 11 30.07 1018 10 16 0.00 0.00
1:53 pm 13:53 Cloudy 63 17.2 58 14.4 84 84 NW 9 15 30.08 1019 10 16 0.00 0.00
2:25 pm 14:25 Cloudy 64 17.8 58 14.4 81 81 NW 5 7 30.04 1017 10 16 0.00 0.00
2:53 pm 14:53 Cloudy 65 18.3 58 14.4 78 78 NW 9 15 30.06 1018 10 16 0.00 0.00
3:53 pm 15:53 Cloudy 65 18.3 58 14.4 78 78 WNW 6 9 30.06 1018 10 16 0.00 0.00
4:53 pm 16:53 Cloudy 65 18.3 58 14.4 78 78 WNW 5 7 30.06 1018 10 16 0.00 0.00
5:53 pm 17:53 Cloudy 66 18.9 58 14.4 75 75 W 6 9 30.06 1018 10 16 0.00 0.00
6:53 pm 18:53 Cloudy 66 18.9 58 14.4 75 75 WNW 6 9 30.05 1018 10 16 0.00 0.00
7:53 pm 19:53 Cloudy 64 17.8 59 15 84 84 NW 3 6 30.06 1018 10 16 0.00 0.00
8:49 pm 20:49 Partly Cloudy 61 16 57 14 88 88 N 5 7 30.04 1017 10 16 0.00 0.00
8:53 pm 20:53 Mostly Clear 61 16.1 57 13.9 87 87 NNW 3 6 30.06 1018 10 16 0.00 0.00
9:53 pm 21:53 Partly Cloudy 58 14.4 56 13.3 93 93 Calm 30.07 1018 10 16 0.00 0.00
10:53 pm 22:53 Cloudy 59 15 57 13.9 93 93 Calm 30.07 1018 10 16 0.00 0.00
11:53 pm 23:53 Cloudy 59 15 57 13.9 93 93 Calm 30.08 1019 10 16 0.00 0.00

Powered by AerisWeather